Temp
25 25 25 25 25 25 26 25 26 26 25 26 26 26 26 25 25 25 25 25 24 24 24 24 23 23 24 24 24 24 24 25 25 25 25 25 25 26 26 26 26 26
25 25 25 25 25 25 25 25 26 26 25 25 26 26 25 25 25 25 25 25 24 24 24 24 24 24 24 24 24 24 24 24 25 25 25 25 25 26 26 26 26 26
25 25 25 25 26 26 26 26 25 25 26 26 25 26 26 26 25 25 25 25 25 25 24 24 24 24 24 24 24 24 24 24 25 25 25 25 25 26 26 26 27 26
25 25 25 26 26 26 26 26 26 25 26 26 26 26 26 26 25 25 25 24 24 25 25 25 25 25 24 24 24 24 25 24 25 25 25 25 25 25 26 26 26 26
25 25 25 26 26 26 26 26 26 26 26 26 26 26 26 25 25 25 25 25 24 25 25 25 25 25 25 24 24 25 25 25 25 25 25 25 25 26 26 26 26 26
25 25 25 25 26 26 26 26 26 26 26 26 26 26 26 25 25 26 26 25 25 26 26 26 25 25 25 25 25 25 25 26 26 25 25 25 25 26 26 26 26 26
26 25 25 25 26 26 26 26 26 26 26 27 26 26 26 26 26 26 26 26 26 26 26 26 26 25 25 25 25 25 25 25 26 25 25 25 25 26 26 26 26 25
26 26 26 26 26 26 26 26 26 26 26 26 26 26 26 26 26 26 26 26 26 26 26 26 25 25 25 26 25 25 25 26 26 25 25 25 25 25 26 26 26 26
26 26 26 26 26 26 27 27 27 26 26 26 27 27 26 26 26 27 26 26 26 26 26 26 25 25 26 26 26 25 25 26 26 26 26 26 26 26 26 26 26 26
26 26 27 27 27 27 27 27 27 27 27 26 27 27 27 27 26 27 26 26 26 26 25 25 26 26 26 26 26 26 26 26 26 26 26 26 26 26 26 26 26 26
26 26 27 27 27 27 27 27 27 27 27 27 27 27 27 27 27 26 26 26 26 26 26 26 26 26 26 26 26 26 26 26 26 26 26 26 26 26 26 26 26 27
25 26 26 27 27 27 27 28 27 28 28 27 27 27 27 27 27 26 26 26 26 26 26 26 26 26 26 26 26 27 26 26 26 26 26 26 26 26 26 26 27 27
25 25 25 26 26 27 27 27 27 27 28 27 27 27 27 27 27 27 27 26 26 26 26 26 26 26 26 25 26 26 26 26 26 27 27 27 27 27 27 27 27 27
25 25 25 25 25 25 26 26 27 27 27 27 27 27 27 27 27 27 27 27 26 26 26 26 26 26 26 26 26 26 26 26 26 27 27 27 27 27 27 27 28 28
25 25 25 24 24 24 24 25 26 26 26 26 26 26 27 27 27 27 27 27 27 27 26 26 26 27 27 26 26 26 26 27 27 27 27 27 27 27 27 27 28 28
24 24 24 24 23 23 23 24 25 25 26 26 26 26 26 26 26 27 27 27 27 27 26 27 27 27 27 26 26 26 26 27 27 27 27 27 27 27 27 27 28 28
23 23 23 23 23 23 23 23 24 24 25 25 25 25 25 25 26 26 26 27 27 27 27 27 28 28 27 26 26 26 26 26 26 27 27 27 27 27 27 27 28 28
22 22 22 22 22 23 23 23 23 23 24 24 24 24 24 24 25 25 26 26 27 27 27 28 28 28 27 26 26 25 25 25 26 26 27 27 27 27 27 28 28 28
21 21 21 21 21 22 22 22 22 22 23 23 24 24 24 24 24 25 25 26 26 27 27 28 28 28 27 26 25 25 25 25 25 26 26 27 27 27 27 27 28 28
20 20 20 20 20 20 20 21 21 21 22 22 23 23 24 24 24 25 25 25 26 26 26 27 27 27 26 25 25 25 25 25 25 25 26 27 27 27 27 27 27 27
19 19 20 20 20 20 20 20 20 20 21 21 22 22 23 23 24 25 25 25 25 26 26 26 26 26 25 25 24 24 24 24 24 25 25 26 26 27 27 27 27 26
18 18 18 18 19 19 19 19 19 20 20 20 21 22 22 22 23 24 24 24 24 25 25 25 25 24 24 24 24 24 24 24 24 24 25 26 26 26 26 26 26 25
17 17 18 18 18 18 18 18 19 19 20 20 21 21 22 22 22 23 23 23 23 23 24 24 23 23 23 23 23 23 23 23 24 24 25 25 25 25 25 25 25 24
17 17 17 18 18 18 18 17 18 18 19 19 20 20 20 21 21 21 21 21 21 21 22 22 22 21 21 22 22 23 23 23 24 24 24 24 25 25 25 25 24 23
17 17 17 17 17 17 17 17 18 18 18 18 19 19 19 19 19 20 20 20 20 20 20 20 20 20 20 21 21 22 22 22 23 23 24 24 24 24 24 24 23 22
17 17 16 16 17 17 17 17 18 18 18 18 18 18 19 19 19 19 19 19 19 19 19 18 18 19 19 20 20 21 21 21 22 22 22 22 22 22 22 22 21 21
Height
869 870 872 873 874 875 875 876 877 877 878 879 879 880 880 881 882 883 884 884 885 885 886 887 887 887 888 888 888 888 888 888 888 888 888 888 888 887 887 888 887 888
868 869 871 872 872 874 874 875 876 877 877 878 878 879 880 881 881 882 883 883 884 885 885 886 887 887 887 888 888 888 888 888 888 888 888 888 887 887 887 887 887 887
867 868 869 871 871 873 874 874 875 876 876 877 878 878 879 880 880 881 882 883 884 884 885 886 886 886 887 887 887 887 887 887 887 887 887 887 887 887 887 887 887 887
865 867 868 869 870 871 872 873 874 875 876 876 877 878 878 879 879 880 881 882 883 883 884 885 885 885 886 886 887 887 887 887 887 887 887 887 887 887 887 887 886 886
864 866 867 868 869 870 871 872 873 874 875 875 876 877 877 878 879 879 880 881 881 882 883 884 884 884 885 885 885 886 886 886 886 886 886 886 886 886 886 886 886 886
863 864 866 867 868 869 870 871 872 873 873 874 875 876 876 877 878 878 879 880 880 881 881 882 883 883 884 884 885 885 885 885 885 885 886 885 886 885 885 886 886 886
861 863 864 866 866 868 869 869 871 871 872 873 874 875 875 876 877 877 878 879 879 880 880 881 882 882 883 883 884 884 884 884 884 884 885 885 885 885 885 885 885 885
859 861 862 864 865 866 867 868 869 870 871 872 872 873 874 875 876 876 877 878 878 879 879 880 881 881 882 882 883 883 883 883 883 883 884 884 884 884 884 884 884 884
857 859 860 862 863 864 865 865 867 868 869 870 871 872 872 873 874 875 876 876 877 878 878 879 880 880 881 881 882 882 882 882 882 882 882 882 883 883 883 883 883 883
855 857 858 859 860 861 862 863 864 865 867 868 869 870 870 871 872 873 874 875 876 877 877 878 878 879 879 880 880 880 881 881 881 881 881 881 881 882 882 882 882 882
853 855 856 857 858 859 860 861 862 863 865 866 867 868 869 870 871 872 873 873 874 875 876 877 877 877 878 878 878 879 879 879 879 880 880 880 880 880 880 881 881 880
851 853 854 855 856 857 858 859 860 861 863 864 865 866 867 868 869 870 871 872 872 873 874 875 875 876 876 876 877 877 877 878 878 878 878 879 879 879 879 879 879 879
849 851 852 853 855 856 857 858 859 860 861 862 864 865 865 866 867 868 869 870 870 871 872 873 873 874 874 875 875 875 876 876 876 876 877 877 877 877 877 877 877 877
847 849 851 852 854 855 856 857 858 859 860 861 862 863 864 864 865 866 867 868 868 869 870 870 871 872 872 873 873 874 874 874 875 875 875 875 875 875 875 875 875 875
845 847 849 850 852 853 854 855 857 858 859 860 861 861 862 863 864 864 865 865 866 867 868 868 869 869 870 870 871 872 872 872 873 873 873 873 873 873 874 874 874 873
844 846 848 849 850 851 852 853 855 856 857 858 859 860 861 862 862 863 863 864 864 865 865 866 866 867 867 868 869 870 870 870 870 871 871 871 872 872 872 872 872 872
842 844 846 847 848 849 850 851 853 854 855 857 858 858 859 860 861 861 861 862 862 863 863 863 863 864 864 865 867 868 869 869 869 869 869 869 869 869 870 870 869 870
840 842 844 846 847 848 848 849 850 851 853 855 856 857 857 858 859 859 860 860 860 860 861 860 861 861 861 863 864 865 866 867 867 867 866 866 866 866 867 867 867 867
839 841 842 844 846 847 848 848 848 849 851 853 854 855 855 855 856 857 857 858 858 858 858 858 859 859 859 860 862 863 864 864 864 865 864 864 864 864 864 864 865 865
838 839 841 843 844 846 847 847 847 847 848 850 852 853 853 853 854 854 854 855 855 856 857 857 857 857 857 857 859 860 860 861 862 862 862 862 862 862 862 862 862 863
837 838 839 840 841 843 845 845 846 846 846 848 849 851 852 852 852 852 852 853 853 854 854 855 855 854 854 855 856 857 858 858 859 860 860 859 859 859 860 860 860 861
836 837 838 839 840 842 843 843 844 844 844 845 847 849 850 850 850 850 850 851 852 852 852 853 853 852 852 853 853 854 855 856 857 857 857 857 857 857 858 858 858 859
838 838 839 839 840 841 842 842 843 844 844 844 845 847 848 849 849 849 849 850 850 850 851 852 851 850 850 851 851 851 852 853 855 855 855 855 855 855 856 856 857 857
840 840 840 840 841 841 842 842 842 843 843 844 844 845 846 847 847 848 848 848 848 849 851 851 850 849 849 850 849 849 850 851 852 852 852 853 853 854 854 855 855 855
841 841 841 842 842 843 843 843 842 843 843 844 844 845 845 846 847 847 847 847 847 849 851 852 850 849 849 849 849 848 848 849 849 850 850 851 852 853 853 854 854 855
842 842 842 843 843 844 844 843 843 843 843 844 845 846 846 847 847 846 845 846 847 849 851 852 852 850 849 849 848 848 848 848 849 849 849 850 852 853 854 854 855 856
Wind_Speed
13 12 11 11 10 8 7 7 7 7 6 6 6 5 6 6 6 6 6 5 5 5 4 4 4 4 4 4 5 4 3 4 3 3 3 3 4 4 4 4 3 3
14 13 12 11 10 9 8 8 7 7 6 6 5 5 5 5 6 6 6 6 6 6 5 5 5 6 6 5 5 5 4 4 4 3 3 3 4 4 4 4 4 3
15 14 13 13 12 11 10 9 7 7 7 6 6 6 6 6 6 7 7 7 7 7 6 6 6 6 7 6 5 5 4 4 4 3 3 4 4 4 4 4 4 4
16 15 14 14 13 12 11 10 9 9 8 7 7 7 7 6 6 7 7 8 8 7 7 6 6 6 7 7 6 6 5 5 5 4 4 4 4 4 4 3 3 3
16 15 14 13 13 12 12 12 11 10 9 9 8 8 8 7 7 7 8 9 9 9 8 7 7 7 7 7 7 7 6 5 5 5 4 4 4 4 4 3 3 3
14 15 15 14 13 13 13 13 12 11 10 10 9 9 9 8 8 8 8 9 9 9 9 8 8 8 7 7 7 6 6 5 4 4 5 5 5 5 4 3 3 4
14 14 15 15 14 14 14 13 12 12 11 10 10 10 9 9 9 9 9 9 9 9 8 7 7 7 6 6 6 6 6 6 5 5 6 5 5 5 5 5 5 5
15 14 14 15 15 15 15 15 14 13 12 11 11 11 10 10 10 10 10 9 9 9 8 7 7 7 7 7 7 6 7 7 6 6 7 6 6 6 6 6 6 6
15 15 14 15 16 16 16 16 15 14 13 13 12 11 11 11 11 10 10 10 9 9 8 9 8 8 8 7 7 7 7 7 7 6 7 7 7 7 7 7 7 7
15 15 15 15 16 16 16 16 16 14 13 13 13 12 12 12 11 11 10 10 10 9 9 10 10 10 10 9 8 8 8 8 8 7 7 8 8 8 7 7 8 8
15 15 15 15 15 16 16 16 16 15 14 13 14 13 12 12 12 12 11 11 11 10 10 11 11 10 10 10 9 9 9 9 8 8 8 8 8 9 8 9 9 9
14 15 15 15 15 15 15 15 15 15 14 13 13 13 13 12 12 12 12 12 11 11 11 11 11 11 11 11 10 10 9 9 9 9 9 9 10 10 10 10 10 10
14 15 15 15 14 14 14 14 14 15 14 14 14 14 14 13 13 13 12 12 12 11 11 11 11 11 11 11 11 10 10 10 10 10 10 10 10 11 11 11 11 11
13 14 14 14 13 13 13 13 13 14 14 14 14 14 15 14 14 13 12 12 12 11 11 11 11 12 12 12 12 11 11 11 10 11 11 11 11 11 12 12 12 12
12 11 11 11 10 11 12 13 13 13 13 13 14 14 14 14 14 14 13 13 12 12 12 12 12 12 12 12 12 11 11 11 11 11 11 11 12 12 12 13 13 13
11 10 9 10 10 10 11 12 13 13 13 13 13 14 14 14 14 14 14 13 12 12 12 13 13 13 13 13 12 11 10 11 11 11 11 12 12 13 13 14 14 14
13 12 11 10 11 10 11 12 12 12 13 13 13 13 13 13 14 14 14 14 13 14 14 14 14 14 14 14 13 12 11 11 11 12 12 13 13 14 14 15 15 15
18 18 15 13 12 12 12 12 11 12 13 13 13 14 13 13 14 14 15 15 14 15 15 15 14 14 14 14 13 12 11 11 12 12 13 13 13 14 14 14 15 15
16 17 16 14 14 14 13 12 12 12 14 14 15 15 14 14 14 15 15 15 15 15 15 15 14 13 13 12 13 13 13 13 12 12 13 14 14 14 14 14 14 14
13 15 15 14 14 14 14 13 13 13 13 14 14 15 15 14 14 15 15 16 15 15 15 15 14 13 12 12 13 14 15 15 15 14 14 15 15 15 15 14 14 14
9 11 12 13 14 15 15 15 14 14 14 13 14 15 16 16 16 15 15 15 15 15 15 14 12 13 14 14 15 16 16 16 15 14 15 16 16 15 15 15 15 14
7 6 6 7 10 12 11 11 11 12 11 11 14 16 16 16 16 16 15 14 13 13 13 12 11 13 15 15 16 16 15 13 13 13 14 15 16 16 15 14 12 11
12 11 10 9 8 7 6 6 6 8 9 10 11 12 13 13 14 12 12 12 11 11 11 11 11 14 16 16 17 17 14 12 11 12 14 15 15 14 12 11 10 9
12 12 11 10 9 7 6 5 4 4 6 8 9 9 8 9 9 7 4 5 7 7 7 7 9 11 13 14 15 16 15 13 12 12 13 13 12 12 11 8 7 8
12 11 10 9 8 8 8 7 5 2 3 5 6 7 6 4 4 4 2 1 1 2 4 5 5 5 8 10 11 12 14 12 12 12 12 10 10 10 9 7 5 5
11 11 10 10 9 8 8 7 5 1 3 3 2 4 4 2 3 4 3 3 3 4 4 3 2 1 2 4 6 8 10 9 8 8 8 8 9 10 10 9 5 2
Wind_Direction
204 205 205 208 212 215 213 209 211 211 215 219 215 212 209 206 206 206 205 203 204 207 212 220 220 213 211 211 216 222 232 247 243 225 226 231 230 229 224 225 236 261
206 208 210 212 213 214 216 215 217 215 217 223 222 216 209 204 205 207 211 213 210 209 210 218 219 215 215 214 213 221 227 238 246 239 234 240 238 232 229 229 224 229
209 210 211 214 215 215 217 218 220 221 219 220 220 215 208 203 201 204 211 214 213 212 212 216 219 216 219 217 215 226 230 231 240 240 235 238 241 242 240 237 233 222
212 212 213 216 217 217 218 219 219 220 220 218 213 209 206 202 201 203 208 210 209 210 212 217 220 218 217 216 219 227 232 233 238 236 237 238 233 241 248 247 250 248
214 215 216 217 219 219 218 219 219 218 218 216 212 207 206 207 208 207 206 206 207 210 213 216 217 218 216 213 218 227 233 235 229 224 236 243 236 236 243 247 256 265
213 215 218 219 220 220 219 218 219 220 218 215 213 210 208 209 212 212 207 206 209 211 213 214 214 217 215 212 218 227 238 243 229 223 237 243 243 243 243 249 260 265
214 215 217 221 221 221 220 220 220 221 219 215 212 212 212 212 213 213 209 209 211 212 212 211 210 214 213 213 221 227 237 246 241 236 245 248 247 249 251 251 252 256
216 217 218 221 222 221 221 221 220 220 218 216 214 213 214 215 215 212 210 209 212 212 212 213 210 214 220 222 227 231 237 241 238 235 241 246 247 248 251 250 247 250
219 220 219 221 222 223 222 219 218 217 216 216 218 216 214 214 216 214 208 208 214 213 211 215 214 217 225 228 229 234 239 243 242 239 240 243 247 248 249 249 249 251
219 221 222 222 222 223 222 220 219 217 215 216 219 218 214 211 213 214 209 207 216 219 216 219 219 219 224 227 230 232 238 242 243 242 244 246 247 250 251 251 251 253
216 219 222 223 224 224 223 222 221 219 216 216 219 219 217 211 209 211 211 212 218 223 222 222 222 222 224 226 230 232 234 238 241 241 243 246 248 251 252 251 251 251
214 218 222 224 225 227 227 224 222 221 219 217 218 219 217 214 210 209 212 215 219 222 223 223 223 223 225 228 232 234 233 236 240 241 243 245 247 248 249 249 249 248
210 218 224 226 226 227 229 228 225 223 221 219 218 219 219 217 213 211 212 215 218 222 223 222 222 224 226 229 234 237 238 239 241 243 246 246 247 248 249 249 248 249
207 216 222 226 227 226 228 229 229 227 225 223 221 221 222 222 219 216 215 216 219 223 225 225 225 227 228 230 234 238 240 242 244 246 250 252 253 252 253 252 252 252
202 210 212 213 217 219 222 225 227 228 228 227 225 225 225 226 226 224 222 221 222 223 227 230 230 230 230 228 228 233 239 243 246 249 252 255 258 258 258 258 257 256
201 206 203 202 205 209 217 224 225 226 227 227 226 227 228 228 229 230 228 227 227 227 228 230 233 234 233 230 230 235 243 248 251 255 257 259 261 262 262 261 259 259
210 210 208 208 208 207 213 220 223 224 224 225 225 225 226 226 227 229 231 233 234 233 231 231 233 233 232 234 239 244 248 252 255 257 257 257 258 259 259 260 260 259
218 219 220 220 217 213 213 214 219 223 222 222 225 225 221 221 224 227 230 233 236 236 235 235 235 233 231 235 243 247 250 255 257 256 256 256 256 256 257 259 259 260
213 216 217 217 218 217 213 209 209 216 221 224 227 227 221 217 221 224 226 229 233 235 236 236 237 234 231 234 242 248 254 259 259 257 257 258 257 258 258 258 259 260
207 210 213 217 222 224 223 219 214 214 219 224 229 230 226 221 220 220 221 224 227 230 232 235 237 237 233 235 241 247 255 261 260 257 257 258 258 259 259 259 259 259
196 207 212 217 223 227 231 233 231 225 222 224 231 233 231 229 228 225 224 225 226 228 231 232 233 233 232 235 240 246 254 259 259 258 258 257 256 257 259 260 259 257
132 145 164 188 205 213 216 216 220 220 214 216 226 231 229 229 231 232 231 231 231 232 232 231 232 233 233 234 238 242 247 251 252 254 256 258 258 257 257 257 257 256
102 112 117 129 146 158 161 164 180 195 194 194 207 218 220 221 225 229 234 236 235 235 233 231 236 240 239 238 241 243 241 240 242 246 250 254 255 255 254 254 251 247
87 98 102 108 115 112 105 111 129 162 180 180 182 189 195 204 207 201 207 221 220 226 232 226 229 240 243 243 245 244 239 234 234 239 246 248 248 247 245 243 245 250
80 83 82 84 87 80 73 74 75 99 174 173 176 177 166 159 178 175 131 50 152 210 235 227 225 245 253 250 248 244 238 232 231 237 245 251 259 264 259 250 253 268
77 75 73 73 72 70 70 72 69 114 169 141 147 192 184 142 147 154 120 94 129 163 175 168 131 65 250 242 242 237 232 226 228 241 250 253 271 298 308 308 312 285